Toluca Jose Maria, Mexico

9:11 PM CDT on May 20, 2018 (GMT -0500)
Lic Adolfo Lopez Mateos International

Weather History for MMTO - October, 2012

Change the Weather History Date:

Sunday, October 21, 2012

  Actual Average Record
Temperature  
Mean Temperature 56 °F -  
Max Temperature 73 °F 68 °F 77 °F (2004)
Min Temperature 39 °F 41 °F 33 °F (1997)
Degree Days  
Heating Degree Days 9    
Growing Degree Days 6 (Base 50)    
Moisture  
Dew Point 40 °F    
Average Humidity 63    
Maximum Humidity 93    
Minimum Humidity 19    
Precipitation  
Precipitation 0.00 in - - ()
Sea Level Pressure  
Sea Level Pressure 30.14 in    
Wind  
Wind Speed 3 mph ()    
Max Wind Speed 14 mph    
Max Gust Speed -    
Visibility 7.7 miles    
Events      
Averages and records for this station are not official NWS values.
T = Trace of Precipitation, MM = Missing Value Source: Averaged Metar Reports

Daily Weather History Graph

Daily Weather History Graph

Search for Another Location

Airport or City:

Astronomy

Oct. 21, 2012 Rise Set
Actual Time 7:34 AM CDT 7:10 PM CDT
Civil Twilight 7:12 AM CDT 7:32 PM CDT
Nautical Twilight 6:46 AM CDT 7:58 PM CDT
Astronomical Twilight 6:21 AM CDT 8:24 PM CDT
Moon 1:41 PM CDT 12:18 AM CDT
Length of Visible Light 12h 20m
Length of Day
11h 35m
Waxing Crescent, 45% of the Moon is Illuminated
Oct 21
Waxing Crescent
Oct 21
First Quarter
Oct 29
Full
Nov 6
Last Quarter
Nov 13
New

Hourly Weather History & Observations

Time (CDT) Temp. Windchill Dew Point Humidity Pressure Visibility Wind Dir Wind Speed Gust Speed Precip Events Conditions
12:45 AM 50.0 °F - 42.8 °F 76% 29.79 in 7.0 mi Calm Calm - N/A   Partly Cloudy
1:45 AM 48.2 °F - 42.8 °F 82% 30.34 in 7.0 mi Calm Calm - N/A   Clear
2:45 AM 44.6 °F - 41.0 °F 87% 30.33 in 7.0 mi Calm Calm - N/A   Clear
3:45 AM 46.4 °F - 42.8 °F 87% 29.77 in 7.0 mi Calm Calm - N/A   Clear
4:45 AM 44.6 °F 43.1 °F 41.0 °F 87% 30.32 in 7.0 mi West 3.5 mph - N/A   Clear
5:45 AM 39.2 °F - 37.4 °F 93% 30.32 in 7.0 mi Calm Calm - N/A   Clear
6:45 AM 39.2 °F - 35.6 °F 87% 29.88 in 7.0 mi Calm Calm - N/A   Clear
7:45 AM 39.2 °F - 35.6 °F 87% 30.34 in 7.0 mi Calm Calm - N/A   Clear
8:45 AM 44.6 °F - 41.0 °F 87% 30.36 in 7.0 mi Calm Calm - N/A   Scattered Clouds
9:45 AM 50.0 °F - 42.8 °F 76% 29.89 in 7.0 mi Calm Calm - N/A   Scattered Clouds
10:45 AM 59.0 °F - 42.8 °F 55% 30.37 in 7.0 mi Calm Calm - N/A   Scattered Clouds
11:45 AM 64.4 °F - 39.2 °F 40% 30.36 in 7.0 mi WNW 4.6 mph - N/A   Scattered Clouds
12:45 PM 66.2 °F - 35.6 °F 32% 29.79 in 7.0 mi SSE 4.6 mph - N/A   Scattered Clouds
1:45 PM 69.8 °F - 32.0 °F 25% 30.30 in 7.0 mi ENE 4.6 mph - N/A   Scattered Clouds
2:45 PM 71.6 °F - 30.2 °F 22% 30.25 in 7.0 mi North 11.5 mph - N/A   Scattered Clouds
3:45 PM 73.4 °F - 41.0 °F 31% 29.63 in 7.0 mi ENE 5.8 mph - N/A   Scattered Clouds
4:45 PM 73.4 °F - 28.4 °F 19% 30.23 in 10.0 mi East 11.5 mph - N/A   Scattered Clouds
5:45 PM 71.6 °F - 30.2 °F 22% 30.32 in 10.0 mi NE 11.5 mph - N/A   Scattered Clouds
6:45 PM 68.0 °F - 30.2 °F 24% 29.74 in 10.0 mi NE 9.2 mph - N/A   Scattered Clouds
7:45 PM 59.0 °F - 50.0 °F 72% 30.26 in 10.0 mi SSE 13.8 mph - N/A   Scattered Clouds
8:45 PM 55.4 °F - 48.2 °F 77% 30.30 in 10.0 mi SSE 12.7 mph - N/A   Scattered Clouds
9:45 PM 53.6 °F - 46.4 °F 77% 29.88 in 8.0 mi SE 10.4 mph - N/A   Clear
10:45 PM 53.6 °F - 48.2 °F 82% 30.34 in 8.0 mi South 5.8 mph - N/A   Clear
11:45 PM 51.8 °F - 44.6 °F 76% 30.35 in 7.0 mi Calm Calm - N/A   Clear